Regional Weather Roundup
Issued by NWS

Home | Current Version | Previous Version | Text Only | Print | Product List | Glossary Off
Versions: 1 2 3 4 5 6 7 8 9 10 11 12 13 14 15 16 17 18 19 20 21 22 23 24 25 26 27 28 29 30 31 32 33 34 35 36 37 38 39 40 41 42 43 44 45 46 47 48 49 50

000
ASUS45 KSLC 301710
RWRUT
UTAH REGIONAL WEATHER ROUNDUP
NATIONAL WEATHER SERVICE SALT LAKE CITY UT
1100 AM MDT THU JUL 30 2015

UTZ001>011-023>025-301800-

NORTHERN UTAH

CITY           SKY/WX    TMP DP  RH WIND       PRES   REMARKS
BRIGHAM CITY   SUNNY     74  24  15 CALM      30.32F
HILL AFB       NOT AVBL
LOGAN          SUNNY     70  34  26 CALM      30.35F
OGDEN          SUNNY     77  39  25 N7        30.32F
PROVO AIRPORT  SUNNY     73  41  31 S3        30.33F
SALT LAKE CITY MOSUNNY   78  36  21 N12       30.30S
VERNAL         SUNNY     77  27  15 S5        30.36F
WENDOVER       NOT AVBL
HEBER CITY     SUNNY     68  32  26 CALM      30.41F
WEST JORDAN    SUNNY     81  36  19 NE5       30.33S

$$

UTZ012>022-026-027-301800-

SOUTHERN/CENTRAL UTAH

CITY           SKY/WX    TMP DP  RH WIND       PRES   REMARKS
BLANDING       SUNNY     76  52  42 SE3       30.46F
BRYCE CANYON   SUNNY     74  32  21 VRB3      30.50S
CEDAR CITY     SUNNY     79  20  11 W3        30.34S
DELTA          SUNNY     83  28  13 NE9       30.31S
HANKSVILLE     SUNNY     82  28  14 CALM      30.29F
MILFORD        SUNNY     84  28  13 N16       30.30F
MOAB/CYNLANDS  SUNNY     86  39  19 VRB5      30.27S
PRICE          SUNNY     81  24  12 VRB3      30.37F
ST GEORGE      SUNNY     88  43  20 NW5       30.16F
KANAB          MOSUNNY   84  54  34 NW5       30.34F

$$

REGIONAL REPORTS     COLORADO/ARIZONA

CITY           SKY/WX    TMP DP  RH WIND       PRES   REMARKS
CRAIG, CO      SUNNY     76  34  21 N3        30.42F
GRAND JUNCTION SUNNY     81  34  18 SE7       30.31F
RIFLE          SUNNY     76  37  24 CALM      30.36F
MONTROSE       SUNNY     80  43  26 VRB3      30.39F
CORTEZ         SUNNY     76  52  43 VRB3      30.39F
PAGE, AZ       MOSUNNY   83  55  38 NW3       30.26S
GRAND CANYON   MOSUNNY   75  50  41 E5        30.42S
KINGMAN        CLOUDY    88  54  31 CALM      30.18S
FLAGSTAFF      CLOUDY    64  54  69 E9        30.45S

$$

REGIONAL REPORTS    NEVADA/IDAHO/WYOMING

CITY           SKY/WX    TMP DP  RH WIND       PRES   REMARKS
LAS VEGAS, NV  PTSUNNY   96  47  18 N5        30.04S HX  92
ELY            SUNNY     76  24  14 NE5       30.41F
ELKO           SUNNY     76  32  20 CALM      30.34F
POCATELLO, ID  SUNNY     72  45  37 NW3       30.35F
BURLEY         SUNNY     75  45  34 NE6       30.31F
EVANSTON, WY   SUNNY     70  28  21 VRB3      30.50F
ROCK SPRINGS   SUNNY     71  30  21 CALM      30.48S
KEMMERER       SUNNY     70  27  19 S3        30.52S

$$



USA.gov is the U.S. government's official web portal to all federal, state and local government web resources and services.